| time (UTC) | temp F | wind direction | speed knots | gust knots | rain 1hr in | rain 24hr in | rain mn in | humidity % | barometer mb |
| 20260506200448 | 32 | 104 | 0.0 | 0.0 | 0.00 | 0.00 | 0.00 | 77 | 1020.5 |
| 20260506195448 | 31 | 103 | 0.0 | 0.0 | 0.00 | 0.00 | 0.00 | 80 | 1020.7 |
| 20260506194448 | 32 | 104 | 0.0 | 0.0 | 0.00 | 0.00 | 0.00 | 78 | 1020.5 |
| 20260506193448 | 31 | 104 | 0.0 | 0.0 | 0.00 | 0.00 | 0.00 | 81 | 1021.0 |
| 20260506192447 | 30 | 104 | 0.0 | 0.0 | 0.00 | 0.00 | 0.00 | 82 | 1020.9 |
| 20260506191446 | 31 | 104 | 0.0 | 0.0 | 0.00 | 0.00 | 0.00 | 81 | 1021.0 |
| 20260506190445 | 31 | 104 | 0.0 | 0.0 | 0.00 | 0.00 | 0.00 | 80 | 1020.7 |
| 20260506185445 | 32 | 104 | 0.0 | 0.0 | 0.00 | 0.00 | 0.00 | 76 | 1021.0 |
| 20260506184445 | 31 | 104 | 0.0 | 0.0 | 0.00 | 0.00 | 0.00 | 80 | 1021.0 |
| 20260506183443 | 30 | 104 | 0.0 | 0.0 | 0.00 | 0.00 | 0.00 | 79 | 1021.0 |
| 20260506182438 | 32 | 104 | 0.0 | 0.0 | 0.00 | 0.00 | 0.00 | 75 | 1021.2 |
| 20260506181433 | 32 | 102 | 0.0 | 0.0 | 0.00 | 0.00 | 0.00 | 74 | 1021.3 |
| 20260506180431 | 32 | 99 | 0.0 | 0.0 | 0.00 | 0.00 | 0.00 | 73 | 1021.4 |
| 20260506175431 | 32 | 100 | 0.0 | 0.0 | 0.00 | 0.00 | 0.00 | 74 | 1021.3 |
| 20260506174426 | 31 | 97 | 0.0 | 0.0 | 0.00 | 0.00 | 0.00 | 76 | 1021.3 |
| 20260506173425 | 31 | 98 | 0.0 | 0.0 | 0.00 | 0.00 | 0.00 | 75 | 1021.5 |
| 20260506172425 | 31 | 98 | 0.0 | 0.0 | 0.00 | 0.00 | 0.00 | 77 | 1021.5 |
| 20260506171425 | 30 | 96 | 0.0 | 0.0 | 0.00 | 0.00 | 0.00 | 81 | 1021.5 |
| 20260506170425 | 29 | 96 | 0.0 | 0.0 | 0.00 | 0.00 | 0.00 | 80 | 1021.5 |
| 20260506165422 | 30 | 97 | 0.0 | 0.0 | 0.00 | 0.00 | 0.00 | 79 | 1021.5 |
| 20260506164420 | 29 | 96 | 0.0 | 0.0 | 0.00 | 0.00 | 0.00 | 80 | 1021.3 |
| 20260506163419 | 28 | 96 | 0.0 | 0.0 | 0.00 | 0.00 | 0.00 | 81 | 1021.2 |
| 20260506162418 | 28 | 96 | 0.0 | 0.0 | 0.00 | 0.00 | 0.00 | 82 | 1020.9 |
| 20260506161413 | 28 | 96 | 0.0 | 0.0 | 0.00 | 0.00 | 0.00 | 81 | 1020.9 |
| 20260506160414 | 29 | 96 | 0.0 | 0.0 | 0.00 | 0.00 | 0.00 | 80 | 1021.2 |
| 20260506155408 | 28 | 96 | 0.0 | 0.0 | 0.00 | 0.00 | 0.00 | 81 | 1021.2 |
| 20260506153530 | 28 | 97 | 0.0 | 0.0 | 0.00 | 0.00 | 0.00 | 83 | 1021.0 |
| 20260506152530 | 29 | 97 | 0.0 | 0.0 | 0.00 | 0.00 | 0.00 | 83 | 1020.7 |
| 20260506151526 | 28 | 98 | 0.0 | 0.0 | 0.00 | 0.00 | 0.00 | 84 | 1020.8 |
| 20260506150525 | 27 | 99 | 0.0 | 0.0 | 0.00 | 0.00 | 0.00 | 87 | 1020.9 |
| 20260506145525 | 25 | 99 | 0.0 | 0.0 | 0.00 | 0.00 | 0.00 | 92 | 1020.7 |
| 20260506144524 | 25 | 98 | 0.0 | 0.0 | 0.00 | 0.00 | 0.00 | 93 | 1020.7 |
| 20260506143520 | 26 | 98 | 0.0 | 0.0 | 0.00 | 0.00 | 0.00 | 91 | 1020.7 |
| 20260506142515 | 26 | 98 | 0.0 | 0.0 | 0.00 | 0.00 | 0.00 | 90 | 1020.7 |
| 20260506141511 | 26 | 98 | 0.0 | 0.0 | 0.00 | 0.00 | 0.00 | 88 | 1020.5 |
| 20260506140506 | 26 | 99 | 0.0 | 0.0 | 0.00 | 0.00 | 0.00 | 90 | 1020.7 |
| 20260506135506 | 26 | 98 | 0.0 | 0.0 | 0.00 | 0.00 | 0.00 | 90 | 1020.5 |
| 20260506134503 | 25 | 98 | 0.0 | 0.0 | 0.00 | 0.00 | 0.00 | 90 | 1020.9 |
| 20260506133503 | 26 | 98 | 0.0 | 0.0 | 0.00 | 0.00 | 0.00 | 90 | 1020.5 |
| 20260506132502 | 26 | 98 | 0.0 | 0.0 | 0.00 | 0.00 | 0.00 | 89 | 1020.3 |
| 20260506131457 | 25 | 98 | 0.0 | 0.0 | 0.00 | 0.00 | 0.00 | 90 | 1020.2 |
| 20260506130456 | 25 | 98 | 0.0 | 0.0 | 0.00 | 0.00 | 0.00 | 91 | 1019.9 |
| 20260506125452 | 24 | 98 | 0.0 | 0.0 | 0.00 | 0.00 | 0.00 | 92 | 1019.8 |
| 20260506124447 | 24 | 98 | 0.0 | 0.0 | 0.00 | 0.00 | 0.00 | 93 | 1019.9 |
| 20260506123442 | 24 | 98 | 0.0 | 0.0 | 0.00 | 0.00 | 0.00 | 94 | 1019.7 |
| 20260506122442 | 24 | 98 | 0.0 | 0.0 | 0.00 | 0.00 | 0.00 | 94 | 1019.4 |
| 20260506121437 | 24 | 98 | 0.0 | 0.0 | 0.00 | 0.00 | 0.00 | 95 | 1019.2 |
| 20260506120432 | 24 | 98 | 0.0 | 0.0 | 0.00 | 0.00 | 0.00 | 95 | 1019.2 |
| 20260506115427 | 24 | 98 | 0.0 | 0.0 | 0.00 | 0.00 | 0.00 | 95 | 1019.2 |
| 20260506114422 | 24 | 98 | 0.0 | 0.0 | 0.00 | 0.00 | 0.00 | 94 | 1019.1 |
| 20260506113418 | 24 | 98 | 0.0 | 0.0 | 0.00 | 0.00 | 0.00 | 94 | 1018.8 |
| 20260506112418 | 24 | 98 | 0.0 | 0.0 | 0.00 | 0.00 | 0.00 | 93 | 1019.1 |
| 20260506111413 | 24 | 98 | 0.0 | 0.0 | 0.00 | 0.00 | 0.00 | 93 | 1018.9 |
| 20260506110414 | 24 | 98 | 0.0 | 0.0 | 0.00 | 0.00 | 0.00 | 94 | 1018.9 |
| 20260506105412 | 24 | 98 | 0.0 | 0.0 | 0.00 | 0.00 | 0.00 | 94 | 1018.8 |
| 20260506104407 | 24 | 98 | 0.0 | 0.0 | 0.00 | 0.00 | 0.00 | 94 | 1018.7 |
| 20260506103402 | 24 | 98 | 0.0 | 0.0 | 0.00 | 0.00 | 0.00 | 96 | 1018.7 |
| 20260506102357 | 24 | 98 | 0.0 | 0.0 | 0.00 | 0.00 | 0.00 | 96 | 1018.3 |
| 20260506101356 | 24 | 98 | 0.0 | 0.0 | 0.00 | 0.00 | 0.00 | 96 | 1018.6 |
| 20260506100352 | 24 | 98 | 0.0 | 0.0 | 0.00 | 0.00 | 0.00 | 95 | 1018.4 |
| 20260506095347 | 24 | 98 | 0.0 | 0.0 | 0.00 | 0.00 | 0.00 | 95 | 1018.7 |
| 20260506094343 | 24 | 98 | 0.0 | 0.0 | 0.00 | 0.00 | 0.00 | 95 | 1018.6 |
| 20260506093343 | 24 | 98 | 0.0 | 0.0 | 0.00 | 0.00 | 0.00 | 96 | 1018.7 |
| 20260506092339 | 24 | 98 | 0.0 | 0.0 | 0.00 | 0.00 | 0.00 | 97 | 1018.7 |
| 20260506091339 | 25 | 98 | 0.0 | 0.0 | 0.00 | 0.00 | 0.00 | 97 | 1018.7 |
| 20260506090339 | 25 | 98 | 0.0 | 0.0 | 0.00 | 0.00 | 0.00 | 97 | 1018.7 |
| 20260506085338 | 25 | 98 | 0.0 | 0.0 | 0.00 | 0.00 | 0.00 | 97 | 1018.7 |
| 20260506084337 | 25 | 98 | 0.0 | 0.0 | 0.00 | 0.00 | 0.00 | 97 | 1018.3 |
| 20260506083337 | 25 | 98 | 0.0 | 0.0 | 0.00 | 0.00 | 0.00 | 96 | 1018.7 |
| 20260506082337 | 25 | 98 | 0.0 | 0.0 | 0.00 | 0.00 | 0.00 | 96 | 1018.4 |
| 20260506081337 | 25 | 98 | 0.0 | 0.0 | 0.00 | 0.00 | 0.00 | 97 | 1018.6 |
| 20260506080337 | 25 | 98 | 0.0 | 0.0 | 0.00 | 0.00 | 0.00 | 97 | 1018.7 |
| 20260506073327 | 26 | 98 | 0.0 | 0.0 | 0.00 | 0.00 | 0.00 | 97 | 1018.7 |
| 20260506072327 | 26 | 98 | 0.0 | 0.0 | 0.00 | 0.00 | 0.00 | 97 | 1018.9 |
| 20260506071323 | 26 | 98 | 0.0 | 0.0 | 0.00 | 0.00 | 0.00 | 97 | 1018.7 |
| 20260506070322 | 26 | 98 | 0.0 | 0.0 | 0.00 | 0.00 | 0.00 | 97 | 1018.6 |
| 20260506062306 | 26 | 98 | 0.0 | 0.0 | 0.00 | 0.00 | 0.00 | 98 | 1018.6 |
| 20260506061304 | 26 | 98 | 0.0 | 0.0 | 0.00 | 0.00 | 0.00 | 98 | 1018.6 |
| 20260506060300 | 26 | 98 | 0.0 | 0.0 | 0.00 | 0.00 | 0.00 | 98 | 1018.6 |
| 20260506051249 | 26 | 98 | 0.0 | 0.0 | 0.00 | 0.14 | 0.14 | 97 | 1018.4 |
| 20260506050244 | 26 | 98 | 0.0 | 0.0 | 0.00 | 0.14 | 0.14 | 98 | 1018.2 |
| 20260506044243 | 26 | 98 | 0.0 | 0.0 | 0.00 | 0.14 | 0.14 | 98 | 1017.8 |
| 20260506043238 | 26 | 98 | 0.0 | 0.0 | 0.00 | 0.14 | 0.14 | 97 | 1017.6 |
| 20260506042235 | 27 | 98 | 0.0 | 0.0 | 0.00 | 0.14 | 0.14 | 97 | 1018.1 |
| 20260506041230 | 27 | 98 | 0.0 | 0.0 | 0.00 | 0.14 | 0.14 | 97 | 1017.8 |
| 20260506040230 | 28 | 98 | 0.0 | 0.0 | 0.00 | 0.14 | 0.14 | 97 | 1017.5 |
| 20260506035229 | 28 | 98 | 0.0 | 0.0 | 0.00 | 0.14 | 0.14 | 97 | 1017.7 |
| 20260506034229 | 28 | 98 | 0.0 | 0.0 | 0.00 | 0.14 | 0.14 | 97 | 1017.3 |
| 20260506033229 | 28 | 98 | 0.0 | 0.0 | 0.00 | 0.14 | 0.14 | 97 | 1016.8 |
| 20260506032229 | 28 | 98 | 0.0 | 0.0 | 0.00 | 0.14 | 0.14 | 97 | 1016.8 |
| 20260506031229 | 28 | 98 | 0.0 | 0.0 | 0.00 | 0.14 | 0.14 | 96 | 1017.0 |
| 20260506030224 | 28 | 99 | 0.0 | 0.0 | 0.00 | 0.14 | 0.14 | 96 | 1017.0 |
| 20260506025223 | 28 | 99 | 0.0 | 0.0 | 0.00 | 0.14 | 0.14 | 96 | 1016.6 |
| 20260506024223 | 28 | 99 | 0.0 | 0.0 | 0.00 | 0.14 | 0.14 | 96 | 1016.6 |
| 20260506023222 | 28 | 99 | 0.0 | 0.0 | 0.00 | 0.14 | 0.14 | 96 | 1016.2 |
| 20260506022217 | 28 | 99 | 0.0 | 0.0 | 0.00 | 0.14 | 0.14 | 96 | 1016.4 |
| 20260506021217 | 28 | 99 | 0.0 | 0.0 | 0.00 | 0.14 | 0.14 | 96 | 1015.9 |
| 20260506020212 | 28 | 99 | 0.0 | 0.0 | 0.00 | 0.14 | 0.14 | 96 | 1015.9 |
| 20260506015212 | 29 | 99 | 0.0 | 0.0 | 0.00 | 0.14 | 0.14 | 96 | 1015.7 |
| 20260506014211 | 29 | 99 | 0.0 | 0.0 | 0.00 | 0.14 | 0.14 | 96 | 1015.7 |
| 20260506013206 | 29 | 99 | 0.0 | 0.0 | 0.00 | 0.14 | 0.14 | 95 | 1015.2 |
| 20260506012204 | 29 | 99 | 0.0 | 0.0 | 0.00 | 0.14 | 0.14 | 95 | 1015.4 |
| 20260506011203 | 30 | 99 | 0.0 | 0.0 | 0.00 | 0.14 | 0.14 | 95 | 1015.4 |
| 20260506010159 | 30 | 99 | 0.0 | 0.0 | 0.00 | 0.14 | 0.14 | 95 | 1015.5 |
| 20260506005159 | 29 | 99 | 0.0 | 0.0 | 0.00 | 0.14 | 0.14 | 95 | 1015.1 |
| 20260506004159 | 30 | 99 | 0.0 | 0.0 | 0.00 | 0.14 | 0.14 | 95 | 1015.4 |
| 20260506003156 | 30 | 99 | 0.0 | 0.0 | 0.00 | 0.14 | 0.14 | 95 | 1015.4 |
| 20260506002154 | 29 | 99 | 0.0 | 0.0 | 0.00 | 0.14 | 0.14 | 94 | 1015.1 |
| 20260506001153 | 29 | 99 | 0.0 | 0.0 | 0.00 | 0.14 | 0.14 | 95 | 1015.1 |
| 20260506000148 | 30 | 99 | 0.0 | 0.0 | 0.00 | 0.14 | 0.14 | 95 | 1015.1 |
| 20260505235148 | 30 | 99 | 0.0 | 0.0 | 0.00 | 0.14 | 0.14 | 95 | 1015.1 |
| 20260505234148 | 30 | 99 | 0.0 | 0.0 | 0.00 | 0.14 | 0.14 | 94 | 1015.4 |
| 20260505233148 | 30 | 100 | 0.0 | 0.0 | 0.00 | 0.14 | 0.14 | 95 | 1015.2 |
| 20260505232143 | 30 | 100 | 0.0 | 0.0 | 0.07 | 0.14 | 0.14 | 94 | 1015.2 |
| 20260505231139 | 30 | 100 | 0.0 | 0.0 | 0.00 | 0.13 | 0.13 | 94 | 1015.2 |
| 20260505230138 | 30 | 100 | 0.0 | 0.0 | 0.00 | 0.13 | 0.13 | 94 | 1015.5 |
| 20260505225137 | 30 | 100 | 0.0 | 0.0 | 0.00 | 0.13 | 0.13 | 95 | 1015.2 |
| 20260505224137 | 30 | 100 | 0.0 | 0.0 | 0.00 | 0.13 | 0.13 | 94 | 1015.4 |
| 20260505223136 | 30 | 101 | 0.0 | 0.0 | 0.00 | 0.13 | 0.13 | 95 | 1015.2 |
| 20260505222134 | 29 | 101 | 0.0 | 0.0 | 0.05 | 0.13 | 0.13 | 95 | 1015.1 |
| 20260505221134 | 29 | 101 | 0.0 | 0.0 | 0.00 | 0.12 | 0.12 | 94 | 1014.9 |
| 20260505220134 | 30 | 101 | 0.0 | 0.0 | 0.00 | 0.12 | 0.12 | 94 | 1014.5 |
| 20260505215130 | 30 | 101 | 0.0 | 0.0 | 0.00 | 0.12 | 0.12 | 94 | 1014.9 |
| 20260505214130 | 30 | 101 | 0.0 | 0.0 | 0.00 | 0.12 | 0.12 | 94 | 1015.0 |
| 20260505213130 | 29 | 102 | 0.0 | 0.0 | 0.00 | 0.12 | 0.12 | 95 | 1014.7 |
| 20260505212130 | 29 | 102 | 0.0 | 0.0 | 0.00 | 0.12 | 0.12 | 95 | 1014.9 |
| 20260505211130 | 30 | 102 | 0.0 | 0.0 | 0.00 | 0.12 | 0.12 | 95 | 1014.6 |
| 20260505210129 | 30 | 102 | 0.0 | 0.0 | 0.07 | 0.12 | 0.12 | 95 | 1015.1 |
| 20260505205125 | 29 | 102 | 0.0 | 0.0 | 0.00 | 0.11 | 0.11 | 95 | 1015.1 |
| 20260505204125 | 29 | 102 | 0.0 | 0.0 | 0.00 | 0.11 | 0.11 | 95 | 1015.1 |
| 20260505203124 | 29 | 102 | 0.0 | 0.0 | 0.00 | 0.11 | 0.11 | 95 | 1015.4 |
| 20260505202122 | 30 | 102 | 0.0 | 0.0 | 0.05 | 0.11 | 0.11 | 94 | 1015.6 |